TEJ079 SABE-SACO

Flight info

Callsign TEJ079
Flight time 1h 48m
Altitude 43000
Route ATOVO4B ATOVO UW5 ASISA ASISA1Q
Aircraft C750/M-SBDE3FGHRWXY/S

Departure

Time 2026-05-03 21:47
Airport Aeroparque Jorge Newbery (SABE)

Arrival

Time 2026-05-03 23:35
Airport Ingeniero Aeronáutico Ambrosio L.V. Taravella International Airport (SACO)
Time Latitude Longitude Altitude Speed Heading
2026-05-03 21:11 -34.55948 -58.41155 20 ft 0 kts 218°
2026-05-03 21:22 -34.55950 -58.41156 22 ft 2 kts 208°
2026-05-03 21:23 -34.55966 -58.41130 20 ft 6 kts 112°
2026-05-03 21:23 -34.55999 -58.41079 20 ft 7 kts 157°
2026-05-03 21:23 -34.56064 -58.41069 20 ft 3 kts 138°
2026-05-03 21:23 -34.56094 -58.41019 20 ft 12 kts 127°
2026-05-03 21:24 -34.56137 -58.40948 20 ft 8 kts 124°
2026-05-03 21:24 -34.56154 -58.40916 20 ft 0 kts 120°
2026-05-03 21:26 -34.56157 -58.40909 21 ft 3 kts 121°
2026-05-03 21:26 -34.56169 -58.40882 21 ft 4 kts 105°
2026-05-03 21:26 -34.56167 -58.40840 20 ft 6 kts 90°
2026-05-03 21:26 -34.56186 -58.40794 22 ft 6 kts 124°
2026-05-03 21:27 -34.56192 -58.40784 20 ft 1 kts 124°
2026-05-03 21:27 -34.56198 -58.40773 20 ft 0 kts 123°
2026-05-03 21:28 -34.56202 -58.40765 21 ft 3 kts 123°
2026-05-03 21:28 -34.56208 -58.40754 20 ft 3 kts 124°
2026-05-03 21:28 -34.56224 -58.40725 20 ft 6 kts 124°
2026-05-03 21:29 -34.56243 -58.40692 21 ft 1 kts 124°
2026-05-03 21:29 -34.56245 -58.40689 21 ft 0 kts 124°
2026-05-03 21:30 -34.56249 -58.40682 20 ft 0 kts 124°
2026-05-03 21:31 -34.56253 -58.40674 20 ft 3 kts 124°
2026-05-03 21:31 -34.56270 -58.40644 22 ft 6 kts 123°
2026-05-03 21:31 -34.56297 -58.40595 19 ft 5 kts 125°
2026-05-03 21:31 -34.56298 -58.40595 19 ft 0 kts 125°
2026-05-03 21:33 -34.56299 -58.40592 21 ft 1 kts 125°
2026-05-03 21:33 -34.56304 -58.40585 20 ft 1 kts 127°
2026-05-03 21:33 -34.56309 -58.40577 19 ft 1 kts 129°
2026-05-03 21:34 -34.56311 -58.40574 19 ft 0 kts 130°
2026-05-03 21:34 -34.56314 -58.40570 22 ft 2 kts 130°
2026-05-03 21:34 -34.56324 -58.40558 19 ft 2 kts 137°
2026-05-03 21:35 -34.56334 -58.40547 21 ft 0 kts 137°
2026-05-03 21:36 -34.56335 -58.40546 21 ft 0 kts 137°
2026-05-03 21:37 -34.56337 -58.40544 20 ft 1 kts 137°
2026-05-03 21:37 -34.56339 -58.40542 19 ft 0 kts 137°
2026-05-03 21:39 -34.56341 -58.40540 19 ft 1 kts 138°
2026-05-03 21:39 -34.56356 -58.40523 21 ft 4 kts 138°
2026-05-03 21:40 -34.56359 -58.40520 20 ft 0 kts 138°
2026-05-03 21:40 -34.56360 -58.40518 20 ft 1 kts 138°
2026-05-03 21:40 -34.56373 -58.40504 19 ft 0 kts 138°
2026-05-03 21:41 -34.56374 -58.40504 19 ft 1 kts 138°
2026-05-03 21:41 -34.56381 -58.40495 19 ft 0 kts 138°
2026-05-03 21:42 -34.56388 -58.40488 19 ft 3 kts 138°
2026-05-03 21:43 -34.56407 -58.40467 19 ft 5 kts 138°
2026-05-03 21:43 -34.56417 -58.40456 19 ft 0 kts 137°
2026-05-03 21:44 -34.56428 -58.40445 20 ft 5 kts 139°
2026-05-03 21:45 -34.56477 -58.40391 20 ft 14 kts 137°
2026-05-03 21:45 -34.56555 -58.40408 20 ft 12 kts 233°
2026-05-03 21:45 -34.56538 -58.40469 22 ft 7 kts 303°
2026-05-03 21:45 -34.56533 -58.40477 20 ft 0 kts 303°
2026-05-03 21:46 -34.56395 -58.40726 18 ft 94 kts 304°
2026-05-03 21:47 -34.55912 -58.41592 303 ft 136 kts 307°
2026-05-03 21:47 -34.55336 -58.42618 788 ft 159 kts 305°
2026-05-03 21:47 -34.54596 -58.43616 1553 ft 155 kts 327°
2026-05-03 21:47 -34.53608 -58.44111 2397 ft 156 kts 348°
2026-05-03 21:48 -34.52531 -58.44056 3201 ft 162 kts
2026-05-03 21:48 -34.51486 -58.43428 3946 ft 174 kts 27°
2026-05-03 21:48 -34.50378 -58.42593 4502 ft 200 kts 26°
2026-05-03 21:48 -34.49131 -58.41667 5127 ft 225 kts 27°
2026-05-03 21:49 -34.47732 -58.40607 5741 ft 249 kts 28°
2026-05-03 21:49 -34.46184 -58.39432 6321 ft 273 kts 28°
2026-05-03 21:49 -34.44554 -58.38192 7280 ft 278 kts 28°
2026-05-03 21:49 -34.42895 -58.36935 8341 ft 284 kts 27°
2026-05-03 21:50 -34.41176 -58.35777 9284 ft 288 kts 16°
2026-05-03 21:50 -34.39215 -58.35480 10215 ft 282 kts 352°
2026-05-03 21:50 -34.37295 -58.36087 10627 ft 296 kts 329°
2026-05-03 21:50 -34.35494 -58.37504 10805 ft 320 kts 322°
2026-05-03 21:51 -34.33612 -58.39097 10933 ft 346 kts 322°
2026-05-03 21:51 -34.31539 -58.40803 10979 ft 371 kts 323°
2026-05-03 21:51 -34.29344 -58.42581 11205 ft 385 kts 323°
2026-05-03 21:51 -34.27119 -58.44404 11857 ft 386 kts 323°
2026-05-03 21:52 -34.24879 -58.46250 12397 ft 391 kts 323°
2026-05-03 21:52 -34.22619 -58.48112 12940 ft 395 kts 323°
2026-05-03 21:52 -34.20358 -58.49969 13483 ft 399 kts 322°
2026-05-03 21:52 -34.18036 -58.51873 14010 ft 403 kts 322°
2026-05-03 21:53 -34.15700 -58.53779 14506 ft 406 kts 322°
2026-05-03 21:53 -34.13345 -58.55693 14990 ft 408 kts 322°
2026-05-03 21:53 -34.11334 -58.58078 15300 ft 406 kts 301°
2026-05-03 21:53 -34.10323 -58.61175 15809 ft 401 kts 279°
2026-05-03 21:54 -34.10389 -58.64522 16287 ft 402 kts 260°
2026-05-03 21:54 -34.11103 -58.67803 16869 ft 403 kts 253°
2026-05-03 21:54 -34.12005 -58.71008 17431 ft 405 kts 251°
2026-05-03 21:54 -34.12972 -58.74220 18006 ft 408 kts 250°
2026-05-03 21:55 -34.13962 -58.77450 18570 ft 411 kts 250°
2026-05-03 21:55 -34.14962 -58.80695 19098 ft 413 kts 250°
2026-05-03 21:55 -34.15966 -58.83960 19633 ft 416 kts 250°
2026-05-03 21:55 -34.16965 -58.87206 20172 ft 419 kts 250°
2026-05-03 21:56 -34.17983 -58.90519 20731 ft 421 kts 250°
2026-05-03 21:56 -34.19003 -58.93846 21280 ft 424 kts 250°
2026-05-03 21:56 -34.20031 -58.97208 21822 ft 427 kts 250°
2026-05-03 21:56 -34.20946 -59.00635 22246 ft 431 kts 258°
2026-05-03 21:57 -34.20899 -59.04266 22756 ft 437 kts 278°
2026-05-03 21:57 -34.19958 -59.07751 23351 ft 443 kts 291°
2026-05-03 21:57 -34.18337 -59.10804 23661 ft 417 kts 305°
2026-05-03 21:57 -34.16270 -59.13116 23654 ft 392 kts 318°
2026-05-03 21:58 -34.13962 -59.14668 23643 ft 373 kts 330°
2026-05-03 21:58 -34.11407 -59.15568 23607 ft 402 kts 342°
2026-05-03 21:58 -34.08627 -59.16364 23606 ft 417 kts 336°
2026-05-03 21:58 -34.05920 -59.17773 23620 ft 430 kts 327°
2026-05-03 21:59 -34.04210 -59.19028 23619 ft 437 kts 320°
2026-05-03 21:59 -34.01837 -59.21394 23631 ft 447 kts 311°
2026-05-03 21:59 -33.99758 -59.24233 23697 ft 456 kts 305°
2026-05-03 21:59 -33.97714 -59.27178 24174 ft 457 kts 306°
2026-05-03 22:00 -33.95677 -59.30090 24600 ft 461 kts 306°
2026-05-03 22:00 -33.93609 -59.33063 25038 ft 463 kts 305°
2026-05-03 22:00 -33.91564 -59.36006 25984 ft 445 kts 305°
2026-05-03 22:00 -33.89629 -59.38769 27266 ft 421 kts 304°
2026-05-03 22:01 -33.87701 -59.41446 27705 ft 426 kts 307°
2026-05-03 22:01 -33.85532 -59.43856 28282 ft 434 kts 317°
2026-05-03 22:01 -33.82734 -59.45425 28442 ft 464 kts 338°
2026-05-03 22:01 -33.79530 -59.46165 29089 ft 471 kts 345°
2026-05-03 22:02 -33.76238 -59.46602 29547 ft 478 kts 348°
2026-05-03 22:02 -33.72904 -59.46924 30032 ft 483 kts 349°
2026-05-03 22:02 -33.69528 -59.47202 30451 ft 488 kts 350°
2026-05-03 22:02 -33.66134 -59.47461 30838 ft 492 kts 350°
2026-05-03 22:03 -33.62733 -59.47715 31187 ft 497 kts 350°
2026-05-03 22:03 -33.59267 -59.47972 31602 ft 500 kts 350°
2026-05-03 22:03 -33.55768 -59.48230 31992 ft 504 kts 350°
2026-05-03 22:03 -33.52248 -59.48488 32389 ft 507 kts 350°
2026-05-03 22:04 -33.48773 -59.48884 32658 ft 504 kts 342°
2026-05-03 22:04 -33.45577 -59.50395 33035 ft 485 kts 322°
2026-05-03 22:04 -33.43088 -59.53001 33392 ft 468 kts 302°
2026-05-03 22:04 -33.41568 -59.56346 33773 ft 452 kts 283°
2026-05-03 22:05 -33.41174 -59.60018 34211 ft 439 kts 263°
2026-05-03 22:05 -33.41881 -59.63516 34858 ft 428 kts 248°
2026-05-03 22:05 -33.43140 -59.66685 35476 ft 424 kts 239°
2026-05-03 22:05 -33.44791 -59.69620 36045 ft 422 kts 234°
2026-05-03 22:06 -33.46597 -59.72384 36603 ft 420 kts 232°
2026-05-03 22:06 -33.48458 -59.75071 37145 ft 418 kts 231°
2026-05-03 22:06 -33.50196 -59.77862 37622 ft 417 kts 238°
2026-05-03 22:06 -33.51472 -59.80925 38111 ft 415 kts 246°
2026-05-03 22:07 -33.52414 -59.84197 38585 ft 415 kts 252°
2026-05-03 22:07 -33.53050 -59.87574 38967 ft 416 kts 257°
2026-05-03 22:07 -33.53362 -59.91037 39309 ft 417 kts 263°
2026-05-03 22:07 -33.53337 -59.94531 39656 ft 419 kts 269°
2026-05-03 22:08 -33.52969 -59.98003 40006 ft 422 kts 276°
2026-05-03 22:08 -33.52262 -60.01395 40356 ft 426 kts 282°
2026-05-03 22:08 -33.51201 -60.04728 40721 ft 430 kts 288°
2026-05-03 22:08 -33.49788 -60.07925 41089 ft 435 kts 294°
2026-05-03 22:09 -33.48042 -60.10910 41480 ft 441 kts 301°
2026-05-03 22:09 -33.45972 -60.13647 41878 ft 447 kts 307°
2026-05-03 22:09 -33.43739 -60.16242 42272 ft 445 kts 308°
2026-05-03 22:10 -33.39403 -60.21331 43033 ft 418 kts 307°
2026-05-03 22:10 -33.37365 -60.23701 43021 ft 396 kts 307°
2026-05-03 22:10 -33.35437 -60.25959 43020 ft 380 kts 306°
2026-05-03 22:11 -33.31665 -60.30406 43028 ft 386 kts 307°
2026-05-03 22:11 -33.27796 -60.34902 43047 ft 391 kts 307°
2026-05-03 22:12 -33.23906 -60.39441 43053 ft 390 kts 307°
2026-05-03 22:12 -33.20015 -60.43970 43039 ft 390 kts 307°
2026-05-03 22:13 -33.16142 -60.48474 43036 ft 389 kts 307°
2026-05-03 22:13 -33.12282 -60.52955 43032 ft 389 kts 307°
2026-05-03 22:14 -33.08395 -60.57463 43033 ft 389 kts 307°
2026-05-03 22:14 -33.04500 -60.61974 43015 ft 389 kts 307°
2026-05-03 22:15 -33.00641 -60.66441 43046 ft 389 kts 307°
2026-05-03 22:15 -32.96747 -60.70935 43051 ft 389 kts 307°
2026-05-03 22:16 -32.92862 -60.75419 43042 ft 389 kts 307°
2026-05-03 22:16 -32.89471 -60.80254 43037 ft 374 kts 294°
2026-05-03 22:17 -32.86860 -60.85548 43058 ft 373 kts 293°
2026-05-03 22:17 -32.84212 -60.90877 43052 ft 373 kts 292°
2026-05-03 22:18 -32.81587 -60.96201 43037 ft 373 kts 293°
2026-05-03 22:18 -32.78963 -61.01490 43036 ft 373 kts 293°
2026-05-03 22:19 -32.76327 -61.06808 43032 ft 372 kts 293°
2026-05-03 22:19 -32.73687 -61.12121 43029 ft 372 kts 293°
2026-05-03 22:20 -32.71067 -61.17387 43021 ft 371 kts 293°
2026-05-03 22:20 -32.68431 -61.22678 43023 ft 371 kts 293°
2026-05-03 22:21 -32.65807 -61.27937 43024 ft 372 kts 293°
2026-05-03 22:21 -32.63171 -61.33215 43026 ft 372 kts 293°
2026-05-03 22:22 -32.60529 -61.38493 43021 ft 371 kts 293°
2026-05-03 22:22 -32.57885 -61.43771 43021 ft 371 kts 293°
2026-05-03 22:23 -32.55257 -61.49008 43005 ft 371 kts 293°
2026-05-03 22:23 -32.52616 -61.54266 43025 ft 371 kts 293°
2026-05-03 22:24 -32.49966 -61.59532 43022 ft 371 kts 293°
2026-05-03 22:24 -32.47331 -61.64762 43022 ft 371 kts 293°
2026-05-03 22:25 -32.44699 -61.69978 43023 ft 371 kts 293°
2026-05-03 22:25 -32.42043 -61.75234 43023 ft 371 kts 293°
2026-05-03 22:26 -32.39402 -61.80452 42985 ft 371 kts 293°
2026-05-03 22:26 -32.36751 -61.85687 43023 ft 371 kts 293°
2026-05-03 22:27 -32.34094 -61.90919 43026 ft 370 kts 293°
2026-05-03 22:27 -32.31439 -61.96152 42958 ft 374 kts 293°
2026-05-03 22:27 -32.30074 -61.98860 42447 ft 392 kts 293°
2026-05-03 22:28 -32.28672 -62.01615 41931 ft 398 kts 294°
2026-05-03 22:28 -32.27233 -62.04421 41404 ft 399 kts 294°
2026-05-03 22:28 -32.25799 -62.07230 40876 ft 399 kts 294°
2026-05-03 22:28 -32.24363 -62.10058 40350 ft 400 kts 294°
2026-05-03 22:29 -32.22922 -62.12889 39800 ft 402 kts 294°
2026-05-03 22:29 -32.21493 -62.15683 39298 ft 403 kts 294°
2026-05-03 22:29 -32.20039 -62.18527 38763 ft 404 kts 293°
2026-05-03 22:29 -32.18583 -62.21377 38182 ft 406 kts 293°
2026-05-03 22:30 -32.17120 -62.24238 37652 ft 407 kts 294°
2026-05-03 22:30 -32.15663 -62.27083 37119 ft 410 kts 294°
2026-05-03 22:30 -32.14180 -62.29979 36573 ft 413 kts 294°
2026-05-03 22:30 -32.12684 -62.32896 36028 ft 416 kts 294°
2026-05-03 22:31 -32.11179 -62.35829 35479 ft 419 kts 294°
2026-05-03 22:31 -32.09660 -62.38787 34919 ft 422 kts 294°
2026-05-03 22:31 -32.08152 -62.41719 34372 ft 425 kts 295°
2026-05-03 22:31 -32.06613 -62.44711 33781 ft 428 kts 295°
2026-05-03 22:32 -32.05064 -62.47720 33225 ft 430 kts 295°
2026-05-03 22:32 -32.03503 -62.50750 32652 ft 432 kts 295°
2026-05-03 22:32 -32.01933 -62.53793 32080 ft 434 kts 295°
2026-05-03 22:32 -32.00363 -62.56833 31521 ft 435 kts 295°
2026-05-03 22:33 -31.98785 -62.59893 30932 ft 437 kts 295°
2026-05-03 22:33 -31.97194 -62.62973 30350 ft 440 kts 295°
2026-05-03 22:33 -31.95607 -62.66032 29735 ft 435 kts 296°
2026-05-03 22:33 -31.94055 -62.69025 29169 ft 431 kts 296°
2026-05-03 22:34 -31.92498 -62.72036 28601 ft 427 kts 296°
2026-05-03 22:34 -31.90952 -62.75020 28037 ft 424 kts 296°
2026-05-03 22:34 -31.89416 -62.77978 27464 ft 421 kts 296°
2026-05-03 22:34 -31.87911 -62.80875 26931 ft 419 kts 296°
2026-05-03 22:35 -31.86396 -62.83791 26382 ft 415 kts 296°
2026-05-03 22:35 -31.84893 -62.86679 25838 ft 412 kts 296°
2026-05-03 22:35 -31.83402 -62.89544 25293 ft 409 kts 296°
2026-05-03 22:35 -31.81772 -62.92276 24773 ft 413 kts 305°
2026-05-03 22:36 -31.79435 -62.94331 24207 ft 428 kts 327°
2026-05-03 22:36 -31.76575 -62.95325 23772 ft 438 kts 343°
2026-05-03 22:36 -31.73535 -62.95752 23384 ft 440 kts 349°
2026-05-03 22:36 -31.70466 -62.95984 23033 ft 439 kts 351°
2026-05-03 22:37 -31.67420 -62.96152 22697 ft 438 kts 352°
2026-05-03 22:37 -31.64411 -62.96301 22373 ft 436 kts 352°
2026-05-03 22:37 -31.61377 -62.96448 22048 ft 433 kts 352°
2026-05-03 22:37 -31.58364 -62.96594 21727 ft 431 kts 352°
2026-05-03 22:38 -31.55376 -62.96742 21419 ft 429 kts 352°
2026-05-03 22:38 -31.52428 -62.96892 21112 ft 427 kts 352°
2026-05-03 22:38 -31.49460 -62.97047 20809 ft 425 kts 352°
2026-05-03 22:38 -31.46512 -62.97203 20511 ft 423 kts 352°
2026-05-03 22:39 -31.43559 -62.97364 20205 ft 422 kts 352°
2026-05-03 22:39 -31.40668 -62.97529 19918 ft 420 kts 352°
2026-05-03 22:39 -31.37755 -62.97699 19638 ft 418 kts 352°
2026-05-03 22:39 -31.34853 -62.97872 19357 ft 416 kts 352°
2026-05-03 22:40 -31.31970 -62.98048 19081 ft 414 kts 352°
2026-05-03 22:40 -31.29100 -62.98226 18813 ft 412 kts 352°
2026-05-03 22:40 -31.26273 -62.98405 18545 ft 410 kts 352°
2026-05-03 22:40 -31.23425 -62.98589 18276 ft 408 kts 352°
2026-05-03 22:41 -31.20599 -62.98801 17954 ft 405 kts 350°
2026-05-03 22:41 -31.17809 -62.99307 17640 ft 401 kts 345°
2026-05-03 22:41 -31.15087 -62.99987 17345 ft 398 kts 343°
2026-05-03 22:41 -31.12420 -63.00713 17061 ft 396 kts 342°
2026-05-03 22:42 -31.09743 -63.01464 16778 ft 394 kts 342°
2026-05-03 22:42 -31.07079 -63.02224 16496 ft 392 kts 342°
2026-05-03 22:42 -31.04430 -63.02988 16218 ft 390 kts 342°
2026-05-03 22:42 -31.01802 -63.03754 15944 ft 389 kts 342°
2026-05-03 22:43 -30.99211 -63.04515 15676 ft 387 kts 342°
2026-05-03 22:43 -30.96605 -63.05286 15411 ft 385 kts 342°
2026-05-03 22:43 -30.94013 -63.06061 15149 ft 383 kts 342°
2026-05-03 22:43 -30.91430 -63.06840 14892 ft 382 kts 342°
2026-05-03 22:44 -30.88854 -63.07625 14636 ft 380 kts 342°
2026-05-03 22:44 -30.86325 -63.08403 14317 ft 379 kts 342°
2026-05-03 22:44 -30.83780 -63.09195 13992 ft 376 kts 342°
2026-05-03 22:44 -30.81245 -63.09992 13686 ft 374 kts 342°
2026-05-03 22:45 -30.78739 -63.10790 13367 ft 372 kts 342°
2026-05-03 22:45 -30.76278 -63.11577 13008 ft 370 kts 342°
2026-05-03 22:45 -30.73795 -63.12379 12695 ft 367 kts 342°
2026-05-03 22:45 -30.71324 -63.13176 12598 ft 368 kts 341°
2026-05-03 22:46 -30.68946 -63.14163 12385 ft 365 kts 329°
2026-05-03 22:46 -30.66951 -63.15893 12155 ft 347 kts 316°
2026-05-03 22:46 -30.65284 -63.17734 12022 ft 315 kts 313°
2026-05-03 22:46 -30.63764 -63.19505 12027 ft 310 kts 312°
2026-05-03 22:47 -30.62248 -63.21289 12021 ft 311 kts 312°
2026-05-03 22:47 -30.61242 -63.22475 12016 ft 315 kts 312°
2026-05-03 22:47 -30.59661 -63.24344 12030 ft 326 kts 311°
2026-05-03 22:47 -30.57527 -63.26870 12027 ft 331 kts 312°
2026-05-03 22:48 -30.56460 -63.28133 12024 ft 331 kts 312°
2026-05-03 22:48 -30.54888 -63.30091 12007 ft 331 kts 307°
2026-05-03 22:48 -30.53505 -63.32228 12007 ft 331 kts 303°
2026-05-03 22:48 -30.52192 -63.34423 12011 ft 331 kts 302°
2026-05-03 22:49 -30.50887 -63.36630 12018 ft 331 kts 302°
2026-05-03 22:49 -30.49598 -63.38816 12019 ft 331 kts 302°
2026-05-03 22:49 -30.48296 -63.41020 12016 ft 330 kts 302°
2026-05-03 22:49 -30.47442 -63.42483 12010 ft 329 kts 301°
2026-05-03 22:50 -30.46640 -63.44930 11987 ft 324 kts 279°
2026-05-03 22:50 -30.46308 -63.48387 12023 ft 325 kts 273°
2026-05-03 22:50 -30.46162 -63.51006 12030 ft 324 kts 272°
2026-05-03 22:50 -30.46030 -63.53618 12025 ft 325 kts 272°
2026-05-03 22:51 -30.45898 -63.56236 12027 ft 325 kts 272°
2026-05-03 22:51 -30.45796 -63.58848 12007 ft 324 kts 268°
2026-05-03 22:51 -30.46257 -63.61390 12006 ft 323 kts 252°
2026-05-03 22:51 -30.47055 -63.63828 12027 ft 323 kts 248°
2026-05-03 22:52 -30.47909 -63.66204 12028 ft 323 kts 247°
2026-05-03 22:52 -30.48786 -63.68610 12029 ft 323 kts 247°
2026-05-03 22:52 -30.49665 -63.71014 12027 ft 323 kts 247°
2026-05-03 22:52 -30.50544 -63.73418 12025 ft 323 kts 247°
2026-05-03 22:53 -30.51619 -63.75666 11962 ft 323 kts 230°
2026-05-03 22:53 -30.53486 -63.77113 11967 ft 329 kts 202°
2026-05-03 22:53 -30.55758 -63.77542 12024 ft 334 kts 187°
2026-05-03 22:53 -30.58087 -63.77599 12034 ft 335 kts 183°
2026-05-03 22:54 -30.60423 -63.77582 12031 ft 335 kts 182°
2026-05-03 22:54 -30.62730 -63.77549 12028 ft 335 kts 182°
2026-05-03 22:54 -30.65073 -63.77514 12027 ft 336 kts 182°
2026-05-03 22:54 -30.67423 -63.77480 12026 ft 337 kts 182°
2026-05-03 22:55 -30.69773 -63.77448 12026 ft 337 kts 182°
2026-05-03 22:55 -30.72122 -63.77417 12023 ft 337 kts 182°
2026-05-03 22:55 -30.74439 -63.77387 12017 ft 337 kts 182°
2026-05-03 22:55 -30.76785 -63.77357 12018 ft 337 kts 182°
2026-05-03 22:56 -30.79117 -63.77555 11966 ft 333 kts 198°
2026-05-03 22:56 -30.81071 -63.78878 11966 ft 326 kts 226°
2026-05-03 22:56 -30.82190 -63.81122 11981 ft 324 kts 254°
2026-05-03 22:56 -30.82334 -63.83724 12028 ft 325 kts 272°
2026-05-03 22:57 -30.82087 -63.86340 12043 ft 325 kts 276°
2026-05-03 22:57 -30.81762 -63.88920 12032 ft 325 kts 277°
2026-05-03 22:57 -30.81417 -63.91529 12027 ft 325 kts 277°
2026-05-03 22:57 -30.81069 -63.94123 12027 ft 324 kts 277°
2026-05-03 22:58 -30.80715 -63.96725 12024 ft 325 kts 277°
2026-05-03 22:58 -30.80365 -63.99292 12023 ft 325 kts 277°
2026-05-03 22:58 -30.80009 -64.01898 12021 ft 325 kts 278°
2026-05-03 22:58 -30.79653 -64.04495 12016 ft 325 kts 278°
2026-05-03 22:59 -30.79293 -64.07103 12010 ft 326 kts 277°
2026-05-03 22:59 -30.78924 -64.09704 12012 ft 326 kts 278°
2026-05-03 22:59 -30.78553 -64.12313 12011 ft 326 kts 278°
2026-05-03 22:59 -30.78186 -64.14880 12008 ft 326 kts 278°
2026-05-03 23:00 -30.77813 -64.17476 12007 ft 325 kts 277°
2026-05-03 23:00 -30.77436 -64.20081 12011 ft 326 kts 278°
2026-05-03 23:00 -30.77057 -64.22681 12016 ft 325 kts 278°
2026-05-03 23:00 -30.76678 -64.25278 12011 ft 326 kts 278°
2026-05-03 23:01 -30.76296 -64.27879 12012 ft 326 kts 278°
2026-05-03 23:01 -30.75919 -64.30445 12013 ft 326 kts 278°
2026-05-03 23:01 -30.75537 -64.33051 12010 ft 326 kts 278°
2026-05-03 23:01 -30.75151 -64.35657 12004 ft 326 kts 278°
2026-05-03 23:02 -30.74842 -64.38245 11969 ft 323 kts 269°
2026-05-03 23:02 -30.75411 -64.40724 11953 ft 320 kts 241°
2026-05-03 23:02 -30.76945 -64.42522 11972 ft 323 kts 213°
2026-05-03 23:02 -30.79078 -64.43451 12022 ft 329 kts 198°
2026-05-03 23:03 -30.81327 -64.44019 12029 ft 330 kts 194°
2026-05-03 23:03 -30.83583 -64.44510 12023 ft 330 kts 193°
2026-05-03 23:03 -30.85847 -64.44983 12027 ft 331 kts 193°
2026-05-03 23:03 -30.88109 -64.45459 12013 ft 331 kts 193°
2026-05-03 23:04 -30.90340 -64.45928 11991 ft 328 kts 193°
2026-05-03 23:04 -30.92608 -64.46406 12013 ft 330 kts 193°
2026-05-03 23:04 -30.94872 -64.46879 12017 ft 330 kts 193°
2026-05-03 23:04 -30.97134 -64.47352 12012 ft 330 kts 193°
2026-05-03 23:05 -30.99398 -64.47829 12017 ft 330 kts 193°
2026-05-03 23:05 -31.01663 -64.48307 12012 ft 330 kts 193°
2026-05-03 23:05 -31.03903 -64.48780 12010 ft 332 kts 193°
2026-05-03 23:05 -31.06209 -64.49280 12005 ft 335 kts 193°
2026-05-03 23:06 -31.08503 -64.49788 12002 ft 334 kts 193°
2026-05-03 23:06 -31.10796 -64.50295 12000 ft 334 kts 193°
2026-05-03 23:06 -31.13056 -64.50792 12003 ft 336 kts 193°
2026-05-03 23:06 -31.15349 -64.51304 12004 ft 335 kts 193°
2026-05-03 23:07 -31.17631 -64.51817 12000 ft 334 kts 193°
2026-05-03 23:07 -31.19923 -64.52331 11999 ft 335 kts 193°
2026-05-03 23:07 -31.22120 -64.53154 11947 ft 330 kts 212°
2026-05-03 23:07 -31.23830 -64.54906 11991 ft 328 kts 229°
2026-05-03 23:08 -31.25277 -64.56937 12011 ft 328 kts 232°
2026-05-03 23:08 -31.26682 -64.59040 12007 ft 328 kts 233°
2026-05-03 23:08 -31.28074 -64.61155 12000 ft 327 kts 233°
2026-05-03 23:08 -31.29461 -64.63268 12004 ft 327 kts 233°
2026-05-03 23:09 -31.30844 -64.65381 12000 ft 326 kts 233°
2026-05-03 23:09 -31.32237 -64.67473 11953 ft 322 kts 233°
2026-05-03 23:09 -31.33580 -64.69457 11488 ft 303 kts 232°
2026-05-03 23:09 -31.34839 -64.71301 11344 ft 277 kts 232°
2026-05-03 23:10 -31.35986 -64.72981 11277 ft 253 kts 232°
2026-05-03 23:10 -31.37329 -64.74282 10575 ft 260 kts 207°
2026-05-03 23:10 -31.39143 -64.74464 9929 ft 272 kts 169°
2026-05-03 23:10 -31.40699 -64.73334 9938 ft 261 kts 139°
2026-05-03 23:11 -31.41962 -64.71729 10019 ft 270 kts 134°
2026-05-03 23:11 -31.43202 -64.70069 10011 ft 270 kts 134°
2026-05-03 23:11 -31.44447 -64.68406 9993 ft 272 kts 134°
2026-05-03 23:11 -31.45683 -64.66747 10003 ft 272 kts 133°
2026-05-03 23:12 -31.46932 -64.65080 9997 ft 271 kts 134°
2026-05-03 23:12 -31.48177 -64.63412 9990 ft 271 kts 133°
2026-05-03 23:12 -31.49425 -64.61748 9985 ft 273 kts 133°
2026-05-03 23:12 -31.50669 -64.60081 9958 ft 267 kts 134°
2026-05-03 23:13 -31.51881 -64.58453 9289 ft 271 kts 133°
2026-05-03 23:13 -31.53136 -64.56795 8752 ft 270 kts 133°
2026-05-03 23:13 -31.54398 -64.55165 8216 ft 276 kts 133°
2026-05-03 23:13 -31.55691 -64.53522 7983 ft 265 kts 134°
2026-05-03 23:14 -31.56930 -64.51941 7982 ft 263 kts 134°
2026-05-03 23:14 -31.58164 -64.50358 7986 ft 265 kts 134°
2026-05-03 23:14 -31.59403 -64.48759 7996 ft 267 kts 133°
2026-05-03 23:14 -31.60647 -64.47150 7999 ft 265 kts 134°
2026-05-03 23:15 -31.61896 -64.45534 7996 ft 265 kts 133°
2026-05-03 23:15 -31.63135 -64.43935 7996 ft 263 kts 133°
2026-05-03 23:15 -31.64358 -64.42350 7997 ft 266 kts 133°
2026-05-03 23:15 -31.65548 -64.40685 7945 ft 267 kts 122°
2026-05-03 23:16 -31.66051 -64.38606 7964 ft 264 kts 96°
2026-05-03 23:16 -31.66211 -64.36431 7999 ft 266 kts 94°
2026-05-03 23:16 -31.66356 -64.34258 8003 ft 270 kts 92°
2026-05-03 23:16 -31.66530 -64.32088 8004 ft 271 kts 93°
2026-05-03 23:17 -31.66715 -64.29881 7998 ft 267 kts 93°
2026-05-03 23:17 -31.66893 -64.27709 7995 ft 267 kts 94°
2026-05-03 23:17 -31.67065 -64.25554 7904 ft 263 kts 94°
2026-05-03 23:17 -31.67246 -64.23394 7306 ft 275 kts 93°
2026-05-03 23:18 -31.67447 -64.21168 6991 ft 269 kts 93°
2026-05-03 23:18 -31.67647 -64.19030 6988 ft 260 kts 94°
2026-05-03 23:18 -31.67767 -64.16898 6967 ft 262 kts 83°
2026-05-03 23:18 -31.67470 -64.14808 6997 ft 260 kts 74°
2026-05-03 23:19 -31.67080 -64.12740 7006 ft 258 kts 73°
2026-05-03 23:19 -31.66685 -64.10713 7011 ft 257 kts 72°
2026-05-03 23:19 -31.66281 -64.08647 7011 ft 259 kts 73°
2026-05-03 23:19 -31.65883 -64.06584 7006 ft 258 kts 73°
2026-05-03 23:20 -31.65483 -64.04532 6996 ft 256 kts 73°
2026-05-03 23:20 -31.65098 -64.02535 6997 ft 253 kts 73°
2026-05-03 23:20 -31.64712 -64.00512 6993 ft 254 kts 73°
2026-05-03 23:20 -31.64325 -63.98488 6979 ft 251 kts 73°
2026-05-03 23:21 -31.63943 -63.96499 6470 ft 253 kts 72°
2026-05-03 23:21 -31.63561 -63.94435 5992 ft 255 kts 73°
2026-05-03 23:21 -31.63219 -63.92458 5992 ft 244 kts 73°
2026-05-03 23:21 -31.62889 -63.90531 5999 ft 245 kts 73°
2026-05-03 23:22 -31.62200 -63.86576 6008 ft 249 kts 73°
2026-05-03 23:22 -31.61854 -63.84588 6019 ft 248 kts 73°
2026-05-03 23:22 -31.61510 -63.82621 6017 ft 248 kts 73°
2026-05-03 23:23 -31.61158 -63.80630 6014 ft 248 kts 73°
2026-05-03 23:23 -31.60804 -63.78638 6016 ft 249 kts 73°
2026-05-03 23:23 -31.60450 -63.76647 6016 ft 248 kts 73°
2026-05-03 23:23 -31.60567 -63.74626 5925 ft 262 kts 107°
2026-05-03 23:24 -31.61747 -63.72990 5905 ft 269 kts 147°
2026-05-03 23:24 -31.63171 -63.71702 5726 ft 261 kts 103°
2026-05-03 23:24 -31.62633 -63.69954 5397 ft 224 kts 37°
2026-05-03 23:24 -31.61395 -63.69000 5534 ft 219 kts 25°
2026-05-03 23:25 -31.59954 -63.68348 5719 ft 236 kts
2026-05-03 23:25 -31.58282 -63.68223 6001 ft 242 kts 355°
2026-05-03 23:25 -31.56600 -63.68525 6636 ft 245 kts 345°
2026-05-03 23:25 -31.55189 -63.69745 6554 ft 260 kts 307°
2026-05-03 23:26 -31.54646 -63.71766 6377 ft 263 kts 281°
2026-05-03 23:26 -31.54509 -63.73856 6017 ft 256 kts 279°
2026-05-03 23:26 -31.54266 -63.75970 5228 ft 266 kts 285°
2026-05-03 23:26 -31.53743 -63.77970 5013 ft 247 kts 296°
2026-05-03 23:27 -31.53009 -63.79791 5020 ft 247 kts 300°
2026-05-03 23:27 -31.52262 -63.81621 5016 ft 250 kts 298°
2026-05-03 23:27 -31.51568 -63.83491 5018 ft 249 kts 297°
2026-05-03 23:27 -31.50876 -63.85367 5016 ft 251 kts 298°
2026-05-03 23:28 -31.50167 -63.87243 5014 ft 252 kts 298°
2026-05-03 23:28 -31.49457 -63.89117 5013 ft 251 kts 298°
2026-05-03 23:28 -31.48756 -63.90973 5011 ft 252 kts 298°
2026-05-03 23:28 -31.48047 -63.92852 5010 ft 250 kts 298°
2026-05-03 23:29 -31.47341 -63.94719 5011 ft 251 kts 298°
2026-05-03 23:29 -31.46635 -63.96586 5010 ft 250 kts 298°
2026-05-03 23:29 -31.45936 -63.98432 5008 ft 251 kts 298°
2026-05-03 23:29 -31.45222 -64.00329 5000 ft 251 kts 297°
2026-05-03 23:30 -31.44860 -64.02289 4982 ft 236 kts 281°
2026-05-03 23:30 -31.44709 -64.04112 4987 ft 223 kts 282°
2026-05-03 23:30 -31.44514 -64.05915 4993 ft 224 kts 281°
2026-05-03 23:30 -31.44142 -64.07672 4984 ft 222 kts 291°
2026-05-03 23:31 -31.43664 -64.09409 5131 ft 223 kts 288°
2026-05-03 23:31 -31.43540 -64.11214 5029 ft 230 kts 273°
2026-05-03 23:31 -31.43589 -64.13094 5012 ft 229 kts 273°
2026-05-03 23:31 -31.43506 -64.14971 4653 ft 227 kts 279°
2026-05-03 23:32 -31.43341 -64.16756 4249 ft 227 kts 281°
2026-05-03 23:32 -31.43015 -64.18534 3863 ft 223 kts 297°
2026-05-03 23:32 -31.41851 -64.19563 3193 ft 216 kts 340°
2026-05-03 23:32 -31.40463 -64.20218 2918 ft 213 kts 342°
2026-05-03 23:33 -31.39222 -64.20657 2646 ft 159 kts 350°
2026-05-03 23:33 -31.38275 -64.20725 2381 ft 122 kts
2026-05-03 23:33 -31.37468 -64.20705 2107 ft 110 kts
2026-05-03 23:33 -31.36708 -64.20741 1978 ft 108 kts
2026-05-03 23:34 -31.35969 -64.20751 1906 ft 105 kts
2026-05-03 23:34 -31.35492 -64.20765 1876 ft 99 kts
2026-05-03 23:34 -31.34796 -64.20750 1813 ft 104 kts
2026-05-03 23:34 -31.34081 -64.20783 1762 ft 101 kts
2026-05-03 23:35 -31.33348 -64.20789 1700 ft 112 kts
2026-05-03 23:35 -31.32570 -64.20809 1575 ft 113 kts
2026-05-03 23:35 -31.31739 -64.20822 1550 ft 49 kts 359°
2026-05-03 23:35 -31.31605 -64.20824 1553 ft 23 kts 359°
2026-05-03 23:36 -31.31451 -64.20827 1556 ft 18 kts 359°
2026-05-03 23:36 -31.31431 -64.20830 1557 ft 2 kts 319°
2026-05-03 23:36 -31.31450 -64.20877 1557 ft 12 kts 231°
2026-05-03 23:36 -31.31461 -64.20909 1558 ft 0 kts 260°
2026-05-03 23:37 -31.31462 -64.20914 1558 ft 2 kts 260°
2026-05-03 23:38 -31.31463 -64.20946 1559 ft 7 kts 269°
2026-05-03 23:38 -31.31471 -64.21022 1560 ft 13 kts 247°
2026-05-03 23:38 -31.31572 -64.21087 1558 ft 22 kts 196°
2026-05-03 23:38 -31.31662 -64.21083 1555 ft 1 kts 85°
2026-05-03 23:39 -31.31657 -64.21073 1555 ft 2 kts 50°
2026-05-03 23:39 -31.31642 -64.21049 1556 ft 5 kts 73°
2026-05-03 23:39 -31.31653 -64.21031 1555 ft 0 kts 148°